EW3803 Weather Reports


time (UTC)temp
C
wind
direction
speed
KPH
gust
KPH
rain 1hr
cm
rain 24hr
cm
rain mn
cm
humidity
%
barometer
mb
20180623043157 17 189 1.6 6.4 0.00 0.00 0.00 94 1014.3
20180623041658 17 191 6.4 9.7 0.00 0.00 0.00 94 1014.2
20180623040154 17 197 6.4 9.7 0.00 0.00 0.00 94 1014.2
20180623034655 17 190 6.4 11.3 0.00 0.00 0.00 93 1014.2
20180623033151 17 201 3.2 12.9 0.00 0.00 0.00 93 1014.4
20180623031650 17 199 8.0 11.3 0.00 0.00 0.00 93 1014.4
20180623030149 17 217 6.4 12.9 0.00 0.00 0.00 93 1014.5
20180623024648 17 221 6.4 14.5 0.00 0.00 0.00 92 1014.5
20180623023148 17 214 6.4 12.9 0.00 0.00 0.00 92 1014.6
20180623021645 17 205 6.4 12.9 0.00 0.00 0.00 91 1014.6
20180623020142 18 196 4.8 8.0 0.00 0.00 0.00 90 1014.5
20180623014642 18 190 4.8 8.0 0.00 0.00 0.00 90 1014.4
20180623013139 18 189 4.8 9.7 0.00 0.00 0.00 90 1014.5
20180623011639 18 186 1.6 8.0 0.00 0.00 0.00 90 1014.6
20180623010136 18 184 1.6 6.4 0.00 0.00 0.00 90 1014.7
20180623004635 18 175 3.2 8.0 0.00 0.00 0.00 89 1014.8
20180623003133 18 188 3.2 9.7 0.00 0.00 0.00 89 1015.0
20180623001633 18 174 3.2 4.8 0.00 0.00 0.00 89 1015.2
20180623000130 18 166 3.2 6.4 0.00 0.00 0.00 89 1015.2
20180622234632 18 169 1.6 6.4 0.00 0.00 0.00 89 1015.2
20180622233129 18 179 1.6 4.8 0.00 0.00 0.00 89 1015.4
20180622231627 18 186 1.6 8.0 0.00 0.00 0.00 88 1015.4
20180622230124 19 178 6.4 9.7 0.00 0.00 0.00 85 1015.4
20180622224624 20 119 0.0 4.8 0.00 0.00 0.00 82 1015.6
20180622223124 20 36 1.6 3.2 0.00 0.00 0.00 82 1015.5
20180622221621 20 36 0.0 3.2 0.00 0.00 0.00 83 1015.6
20180622220122 19 36 0.0 4.8 0.00 0.00 0.00 84 1015.6
20180622214621 19 36 1.6 4.8 0.00 0.00 0.00 86 1015.6
20180622213120 19 36 1.6 3.2 0.00 0.00 0.00 87 1015.5
20180622211619 18 36 4.8 8.0 0.00 0.00 0.00 89 1015.5
20180622210121 18 41 1.6 4.8 0.00 0.00 0.00 89 1015.4
20180622204622 18 41 3.2 6.4 0.00 0.00 0.00 89 1015.2
20180622203120 18 351 3.2 6.4 0.00 0.00 0.00 88 1015.0
20180622201617 19 332 4.8 9.7 0.00 0.00 0.00 86 1014.9
20180622200117 19 321 1.6 8.0 0.00 0.00 0.00 85 1014.9
20180622194620 20 320 3.2 9.7 0.00 0.00 0.00 83 1015.0
20180622193117 20 337 4.8 8.0 0.00 0.00 0.00 82 1014.9
20180622191616 20 305 6.4 19.3 0.00 0.00 0.00 82 1014.9
20180622190117 20 312 8.0 14.5 0.00 0.00 0.00 81 1015.0
20180622184615 20 296 4.8 12.9 0.00 0.03 0.00 81 1015.0
20180622183115 20 313 3.2 11.3 0.00 0.03 0.00 81 1015.0
20180622181613 21 307 6.4 14.5 0.00 0.03 0.00 82 1015.0
20180622180113 21 301 8.0 17.7 0.00 0.03 0.00 82 1015.1
20180622174613 21 289 6.4 16.1 0.00 1.52 0.00 83 1015.0
20180622173113 21 290 9.7 19.3 0.00 1.52 0.00 80 1014.9
20180622171612 21 280 8.0 19.3 0.00 1.52 0.00 79 1015.0
20180622170112 22 298 9.7 17.7 0.00 1.52 0.00 77 1015.0
20180622164612 22 248 14.5 22.5 0.00 1.52 0.00 77 1014.9
20180622163109 22 250 9.7 20.9 0.00 1.52 0.00 74 1014.9
20180622161609 23 240 11.3 19.3 0.00 1.52 0.00 71 1014.9
20180622160112 23 231 8.0 17.7 0.00 1.52 0.00 72 1015.0
20180622154610 22 250 11.3 17.7 0.00 1.52 0.00 74 1015.0
20180622153108 22 263 11.3 19.3 0.00 1.52 0.00 75 1014.9
20180622151607 22 300 12.9 20.9 0.00 1.52 0.00 74 1014.9
20180622150103 22 250 9.7 20.9 0.00 1.52 0.00 75 1015.1
20180622144602 22 275 12.9 20.9 0.00 1.52 0.00 72 1015.1
20180622143102 22 302 11.3 22.5 0.00 1.52 0.00 71 1015.1
20180622141601 23 277 9.7 19.3 0.00 1.52 0.00 72 1015.1
20180622140103 24 291 12.9 20.9 0.00 1.52 0.00 68 1015.1
20180622134601 25 271 11.3 19.3 0.00 1.52 0.00 68 1015.3
20180622133101 24 334 9.7 19.3 0.00 1.52 0.00 70 1015.3
20180622131604 24 299 11.3 17.7 0.00 1.52 0.00 69 1015.4
20180622130056 25 295 6.4 17.7 0.00 1.52 0.00 69 1015.5
20180622124556 24 300 9.7 17.7 0.00 1.52 0.00 72 1015.7
20180622123056 23 298 8.0 20.9 0.00 1.52 0.00 73 1015.7
20180622121555 24 284 11.3 20.9 0.00 1.52 0.00 70 1015.6
20180622120056 25 306 9.7 16.1 0.00 1.52 0.00 69 1015.8
20180622114552 26 311 3.2 12.9 0.00 1.52 0.00 65 1016.0
20180622113051 27 178 6.4 16.1 0.00 1.52 0.00 57 1015.9
20180622111549 26 177 3.2 14.5 0.00 1.52 0.00 56 1016.0
20180622110546 26 107 4.8 9.7 0.00 1.52 0.00 58 1016.1
20180622103046 26 175 4.8 14.5 0.00 1.52 0.00 58 1016.1
20180622101544 26 186 6.4 11.3 0.00 1.52 0.00 60 1016.1
20180622100040 25 140 3.2 11.3 0.00 1.52 0.00 66 1016.1
20180622094536 25 134 6.4 12.9 0.00 1.52 0.00 70 1016.2
20180622093033 24 141 9.7 22.5 0.00 1.52 0.00 71 1016.2
20180622091527 23 148 8.0 14.5 0.00 1.52 0.00 77 1016.1
20180622090024 23 133 6.4 12.9 0.00 1.52 0.00 78 1016.1
20180622084520 22 154 6.4 12.9 0.00 1.52 0.00 79 1016.3
20180622083018 21 126 6.4 17.7 0.00 1.52 0.00 82 1016.1
20180622081514 20 146 4.8 12.9 0.00 1.52 0.00 86 1016.0
20180622080011 20 109 0.0 3.2 0.00 1.52 0.00 86 1016.1
20180622074509 20 114 3.2 9.7 0.00 1.63 0.00 87 1016.0
20180622073010 20 102 8.0 14.5 0.00 1.63 0.00 87 1016.2
20180622071510 20 148 8.0 17.7 0.00 1.63 0.00 87 1016.2
20180622070008 19 146 8.0 14.5 0.00 1.63 0.00 88 1016.0
20180622064505 19 125 6.4 16.1 0.00 1.65 0.00 88 1016.1
20180622063001 18 107 8.0 14.5 0.00 1.65 0.00 89 1016.0
20180622061500 18 153 4.8 12.9 0.00 1.65 0.00 88 1015.7
20180622055959 18 155 8.0 12.9 0.00 1.65 0.00 87 1015.8
20180622054459 18 165 3.2 9.7 0.00 1.85 0.00 86 1015.7
20180622052956 18 153 1.6 6.4 0.00 1.85 0.00 85 1015.7
20180622051457 18 140 0.0 3.2 0.00 1.85 0.00 85 1015.6
20180622045953 18 140 0.0 3.2 0.00 1.85 0.00 85 1015.5
20180622044453 18 101 1.6 3.2 0.00 1.93 0.00 85 1015.5